Metropolis, IL

12:39 AM CDT on April 24, 2018 (GMT -0500)
Metropolis

Weather History for KM30 - December, 2012

Change the Weather History Date:

Thursday, December 13, 2012

  Actual Average (KPAH) Record (KPAH)
Temperature  
Mean Temperature 37 °F -  
Max Temperature 53 °F 47 °F 74 °F (2015)
Min Temperature 21 °F 30 °F -3 °F (1962)
Degree Days  
Heating Degree Days 28    
Moisture  
Dew Point 25 °F    
Average Humidity 73    
Maximum Humidity 100    
Minimum Humidity 29    
Precipitation  
Precipitation 0.00 in - - ()
Sea Level Pressure  
Sea Level Pressure 30.33 in    
Wind  
Wind Speed 1 mph (SSE)    
Max Wind Speed 7 mph    
Max Gust Speed -    
Visibility 9 miles    
Events      
Averages and records for this station are not official NWS values.
T = Trace of Precipitation, MM = Missing Value Source: NWS Daily Summary

Daily Weather History Graph

Daily Weather History Graph

Search for Another Location

Airport or City:

Astronomy

Dec. 13, 2012 Rise Set
Actual Time 7:00 AM CST 4:38 PM CST
Civil Twilight 6:31 AM CST 5:07 PM CST
Nautical Twilight 5:58 AM CST 5:40 PM CST
Astronomical Twilight 5:27 AM CST 6:11 PM CST
Moon 7:09 AM CST (12/13) 5:20 PM CST (12/13)
Length of Visible Light 10h 36m
Length of Day
9h 37m
New Moon, 0% of the Moon is Illuminated
Dec 13
New Moon
Dec 19
First Quarter
Dec 28
Full
Jan 4
Last Quarter
Jan 11
New

Hourly Weather History & Observations

Time (CST) Temp. Windchill Dew Point Humidity Pressure Visibility Wind Dir Wind Speed Gust Speed Precip Events Conditions
12:15 AM 26.2 °F - 26.2 °F 100% 30.34 in 10.0 mi Calm Calm - N/A   Clear
12:35 AM 25.9 °F - 25.3 °F 98% 30.35 in 10.0 mi Calm Calm - N/A   Clear
12:55 AM 25.9 °F - 25.5 °F 99% 30.35 in 10.0 mi Calm Calm - N/A   Clear
1:15 AM 25.5 °F - 25.5 °F 100% 30.35 in 10.0 mi Calm Calm - N/A   Clear
1:35 AM 25.3 °F - 25.3 °F 100% 30.34 in 10.0 mi Calm Calm - N/A   Clear
1:55 AM 24.6 °F - 24.6 °F 100% 30.34 in 10.0 mi Calm Calm - N/A   Clear
2:15 AM 24.6 °F - 24.6 °F 100% 30.35 in 10.0 mi Calm Calm - N/A   Clear
2:35 AM 24.3 °F - 24.3 °F 100% 30.36 in 10.0 mi Calm Calm - N/A   Clear
3:15 AM 23.4 °F - 23.4 °F 100% 30.37 in 10.0 mi Calm Calm - N/A   Clear
3:35 AM 24.6 °F - 24.6 °F 100% 30.37 in 10.0 mi Calm Calm - N/A   Clear
3:55 AM 23.5 °F - 23.5 °F 100% 30.36 in 10.0 mi Calm Calm - N/A   Clear
4:35 AM 23.9 °F - 23.9 °F 100% 30.37 in 10.0 mi Calm Calm - N/A   Clear
4:55 AM 22.3 °F - 22.3 °F 100% 30.37 in 10.0 mi Calm Calm - N/A   Clear
5:15 AM 23.4 °F - 23.4 °F 100% 30.37 in 10.0 mi Calm Calm - N/A   Clear
5:35 AM 22.8 °F - 22.8 °F 100% 30.37 in 7.0 mi Calm Calm - N/A   Clear
5:55 AM 23.0 °F - 23.0 °F 100% 30.38 in 10.0 mi Calm Calm - N/A   Clear
6:15 AM 23.2 °F - 23.2 °F 100% 30.38 in 7.0 mi Calm Calm - N/A   Clear
6:35 AM 22.8 °F - 22.8 °F 100% 30.39 in 7.0 mi Calm Calm - N/A   Clear
6:55 AM 21.9 °F - 21.9 °F 100% 30.39 in 5.0 mi Calm Calm - N/A   Clear
7:15 AM 22.1 °F - 22.1 °F 100% 30.39 in 7.0 mi Calm Calm - N/A   Clear
7:35 AM 22.8 °F - 22.8 °F 100% 30.39 in 7.0 mi Calm Calm - N/A   Clear
7:55 AM 26.2 °F - 26.2 °F 100% 30.39 in 7.0 mi Calm Calm - N/A   Clear
8:35 AM 32.0 °F - 31.1 °F 96% 30.39 in 7.0 mi Calm Calm - N/A   Clear
8:55 AM 34.5 °F - 32.7 °F 93% 30.39 in 10.0 mi Calm Calm - N/A   Clear
9:15 AM 36.5 °F 33.9 °F 32.0 °F 84% 30.40 in 10.0 mi ESE 3.5 mph - N/A   Clear
9:35 AM 38.7 °F 36.3 °F 31.8 °F 76% 30.39 in 10.0 mi SSE 3.5 mph - N/A   Clear
9:55 AM 40.5 °F 38.4 °F 30.6 °F 68% 30.40 in 10.0 mi SE 3.5 mph - N/A   Clear
10:35 AM 43.0 °F 40.3 °F 30.2 °F 61% 30.39 in 10.0 mi SE 4.6 mph - N/A   Clear
10:55 AM 45.0 °F 42.6 °F 29.8 °F 55% 30.38 in 10.0 mi South 4.6 mph - N/A   Clear
11:15 AM 46.4 °F 44.3 °F 28.8 °F 50% 30.37 in 10.0 mi SSE 4.6 mph - N/A   Clear
11:35 AM 48.0 °F - 27.1 °F 44% 30.36 in 10.0 mi Calm Calm - N/A   Clear
11:55 AM 48.9 °F - 25.0 °F 39% 30.35 in 10.0 mi Calm Calm - N/A   Clear
12:15 PM 49.5 °F - 24.3 °F 37% 30.34 in 10.0 mi SSE 3.5 mph - N/A   Clear
12:35 PM 51.1 °F - 23.0 °F 33% 30.33 in 10.0 mi SE 5.8 mph - N/A   Clear
12:55 PM 51.8 °F - 23.5 °F 33% 30.32 in 10.0 mi SSE 4.6 mph - N/A   Clear
1:15 PM 52.0 °F - 23.2 °F 33% 30.31 in 10.0 mi SSE 4.6 mph - N/A   Clear
1:35 PM 52.9 °F - 22.5 °F 31% 30.30 in 10.0 mi SSE 5.8 mph - N/A   Clear
1:55 PM 52.9 °F - 21.9 °F 30% 30.29 in 10.0 mi South 5.8 mph - N/A   Clear
2:15 PM 53.6 °F - 21.9 °F 29% 30.29 in 10.0 mi South 6.9 mph - N/A   Clear
2:35 PM 53.8 °F - 22.5 °F 30% 30.29 in 10.0 mi South 4.6 mph - N/A   Clear
2:55 PM 53.6 °F - 22.8 °F 30% 30.28 in 10.0 mi SSE 4.6 mph - N/A   Clear
3:15 PM 53.6 °F - 22.6 °F 30% 30.28 in 10.0 mi South 4.6 mph - N/A   Clear
3:35 PM 53.1 °F - 23.0 °F 31% 30.28 in 10.0 mi SE 3.5 mph - N/A   Clear
3:55 PM 52.3 °F - 23.2 °F 32% 30.27 in 10.0 mi Calm Calm - N/A   Clear
4:35 PM 49.8 °F - 21.4 °F 33% 30.27 in 10.0 mi Calm Calm - N/A   Clear
5:15 PM 43.3 °F 41.7 °F 23.7 °F 46% 30.27 in 10.0 mi South 3.5 mph - N/A   Clear
5:35 PM 41.2 °F - 25.7 °F 54% 30.27 in 10.0 mi Calm Calm - N/A   Clear
6:35 PM 38.5 °F - 26.4 °F 62% 30.28 in 10.0 mi Calm Calm - N/A   Clear
6:55 PM 37.0 °F - 25.9 °F 64% 30.28 in 10.0 mi Calm Calm - N/A   Clear
7:55 PM 34.7 °F - 26.6 °F 72% 30.27 in 10.0 mi Calm Calm - N/A   Clear
8:15 PM 34.2 °F - 26.8 °F 74% 30.27 in 10.0 mi Calm Calm - N/A   Clear
8:35 PM 32.7 °F - 26.6 °F 78% 30.27 in 10.0 mi Calm Calm - N/A   Clear
8:55 PM 32.2 °F - 26.1 °F 78% 30.27 in 10.0 mi Calm Calm - N/A   Clear
9:15 PM 32.5 °F - 26.1 °F 77% 30.27 in 10.0 mi Calm Calm - N/A   Clear
9:35 PM 32.0 °F - 26.6 °F 80% 30.27 in 10.0 mi Calm Calm - N/A   Clear
9:55 PM 31.3 °F - 25.7 °F 80% 30.27 in 10.0 mi Calm Calm - N/A   Clear
10:15 PM 30.0 °F - 26.1 °F 85% 30.27 in 3.0 mi Calm Calm - N/A   Clear
10:35 PM 30.4 °F - 26.2 °F 85% 30.27 in 7.0 mi Calm Calm - N/A   Clear
10:55 PM 30.4 °F - 26.1 °F 84% 30.27 in 10.0 mi Calm Calm - N/A   Clear
11:15 PM 29.8 °F - 25.9 °F 85% 30.26 in 10.0 mi Calm Calm - N/A   Clear
11:35 PM 29.7 °F - 25.9 °F 86% 30.26 in 10.0 mi Calm Calm - N/A   Clear
11:55 PM 29.1 °F - 25.7 °F 87% 30.26 in 10.0 mi Calm Calm - N/A   Clear